Regional Weather Roundup
Issued by NWS Goodland, KS

Home | Current Version | Previous Version | Graphics & Text | Print | Product List | Glossary On
Versions: 1 2 3 4 5 6 7 8 9 10 11 12 13 14 15 16 17 18 19 20 21 22 23 24 25 26 27 28 29 30 31 32 33 34 35 36 37 38 39 40 41 42 43 44 45 46 47 48 49 50
000
ASUS43 KGLD 241308
RWRGLD

GOODLAND FORECAST AREA HOURLY WEATHER ROUNDUP
NATIONAL WEATHER SERVICE GOODLAND KS
700 AM MDT SUN MAY 24 2015

...OFFICIAL OBSERVATIONS...

CITY           SKY/WX    TMP DP  RH WIND       PRES   REMARKS
GOODLAND KS    CLOUDY    53  52  96 W5        29.89F
HILL CITY KS   CLOUDY    58  56  93 CALM      29.89F
IMPERIAL NEB   CLOUDY    54  52  93 S9        29.89R
MCCOOK NEB     CLOUDY    56  56 100 SE7       29.88S FOG
AKRON CO       FOG       45  45 100 W7        29.90S VSB 3/4
BURLINGTON CO  CLOUDY    52  47  83 CALM      29.89F
LIMON CO       SUNNY     41  41 100 NW7       29.91F
$$

...UNOFFICIAL OBSERVATIONS...

CITY           SKY/WX    TMP DP  RH WIND       PRES   REMARKS
GOVE KS          N/A     58  32  37 MISG        N/A
LENORA KS        N/A     57  32  39 MISG        N/A
SHARON SPRINGS   N/A     55  54  97 MISG        N/A
TRENTON NEB      N/A     55  32  41 SE7         N/A
KIT CARSON CO    N/A     52  48  87 MISG        N/A
$$



USA.gov is the U.S. government's official web portal to all federal, state and local government web resources and services.